NPSAT1 (44340 NORAD) Tracking and Keplerian Element Data

This shows tracking and keplerian element data for the satellite.

Feedback or suggestion? Click here.




ElementValue
Catalog44340
NameNPSAT1
Epoch Orbit399
Epoch Day203.802135
Epoch Year2019
RAAN31.7249
Inclination24.0023
Eccentricity0.0011826
Argument of Perigee137.8965
Mean Anonmoly222.2457
Mean Motion14.52757632
Decay Rate1.35E-06
L11 44340U 19036B 19203.80213500 .00000135 00000-0 -18277-4 0 9997
L22 44340 24.0023 31.7249 0011826 137.8965 222.2457 14.52757632 3998

Live tracking and technical data element details for NPSAT1 (NORAD 44340). NPSAT1 can be tracked NOW for your location showing map with azimuth and elevation plus other details from your city location.

Track the satellite on the map from your city or location and see movement details for azimuth, elevation, latitude, longitude, range, height, and movement on the map or in text.







IsCatalogInMostPopularTable: catalog: 44340, numindb: 19
Update: records affected: 1



GetName: 44340 NPSAT1

Hit Count: updated at: Thu, 05 Dec 2019 16:48:00 GMT